Location: São Paulo
(23.5507°S, 46.6334°W)
Time: 17:15:21
(UTC-03:00)

A-11 Canister half - Pass Details

Date: 13 February 2026
Orbit: 1524 x 1683 km, 47.3° (Epoch: 13 March)

Event Time Altitude Azimuth Distance (km) Brightness Sun altitude
Exits shadow 04:52:40 17° 300° (WNW) 3,362 10.1 -14.0°
Maximum altitude 05:00:50 66° 221° (SW) 1,807 9.3 -12.3°
Drops below altitude 10° 05:10:59 10° 140° (SE) 3,961 12.2 -10.1°
Sets 05:14:14 0° 136° (SE) 4,951 12.9 -9.4°
